[TLELIST] Archives

 

[list_settings.list_name] Current TLEs

July 26th 2009 PDT

HST 1 20580U 90037B 09204.22243739 +.00000269 +00000-0 +78335-5 0 04242 2 20580 028.4692 227.1089 0003219 305.6489 054.3894 15.00817186855274 ISS (ZARYA) 1 25544U 98067A 09205.96316008 +.00012778 +00000-0 +91795-4 0 02802 2 25544 051.6398 112.9000 0005869 278.3287 191.3943 15.74043552611905 CXO 1 25867U 99040B 09206.16666667 -.00000157 +00000-0 +10000-3 0 03500 2 25867 065.5986 067.6926 7594293 275.7397 359.5768 00.37805783005159 ____________________________________________________________________ These 2-Line ...Continue Reading

[list_settings.list_name] Current TLEs

July 25th 2009 PDT

HST 1 20580U 90037B 09204.22243739 +.00000269 +00000-0 +78335-5 0 04242 2 20580 028.4692 227.1089 0003219 305.6489 054.3894 15.00817186855274 ISS (ZARYA) 1 25544U 98067A 09206.15415132 .00012883 00000-0 92493-4 0 2816 2 25544 051.6398 111.9194 0005860 278.7040 194.0156 15.74049189611931 CXO 1 25867U 99040B 09206.16666667 -.00000157 +00000-0 +10000-3 0 03500 2 25867 065.5986 067.6926 7594293 275.7397 359.5768 00.37805783005159 ____________________________________________________________________ These 2-Line ...Continue Reading

[list_settings.list_name] Current TLEs

July 24th 2009 PDT

HST 1 20580U 90037B 09201.16345431 +.00000257 +00000-0 +68857-5 0 04238 2 20580 028.4701 247.0752 0003234 273.0910 086.9308 15.00816473854815 ISS (ZARYA) 1 25544U 98067A 09205.14585234 .00010694 00000-0 77653-4 0 2746 2 25544 051.6396 117.0965 0005889 274.8357 240.4588 15.74013940611774 CXO 1 25867U 99040B 09203.50000000 -.00000145 +00000-0 +10000-3 0 03493 2 25867 065.5898 067.8488 7588909 275.7334 356.4986 00.37805168005148 ____________________________________________________________________ These 2-Line ...Continue Reading

[list_settings.list_name] Current TLEs

July 23rd 2009 PDT

HST 1 20580U 90037B 09201.16345431 +.00000257 +00000-0 +68857-5 0 04238 2 20580 028.4701 247.0752 0003234 273.0910 086.9308 15.00816473854815 ISS (ZARYA) 1 25544U 98067A 09203.52761574 .00006755 00000-0 50790-4 0 2666 2 25544 051.6391 125.4054 0005773 266.0886 073.4460 15.73964054611518 CXO 1 25867U 99040B 09203.50000000 -.00000145 +00000-0 +10000-3 0 03493 2 25867 065.5898 067.8488 7588909 275.7334 356.4986 00.37805168005148 ____________________________________________________________________ These 2-Line ...Continue Reading

[list_settings.list_name] Current TLEs

July 22nd 2009 PDT

HST 1 20580U 90037B 09201.16345431 +.00000257 +00000-0 +68857-5 0 04238 2 20580 028.4701 247.0752 0003234 273.0910 086.9308 15.00816473854815 ISS (ZARYA) 1 25544U 98067A 09202.40633840 .00007418 00000-0 55376-4 0 2590 2 25544 051.6379 131.1664 0005978 262.3422 199.4777 15.73948023611346 CXO 1 25867U 99040B 09200.87500000 -.00000140 +00000-0 +10000-3 0 03489 2 25867 065.5891 067.9571 7579657 275.7735 359.0724 00.37793972005137 ____________________________________________________________________ These 2-Line ...Continue Reading

[list_settings.list_name] Current TLEs

July 21st 2009 PDT

HST 1 20580U 90037B 09199.50096380 +.00000280 +00000-0 +86839-5 0 04223 2 20580 028.4703 257.9249 0003255 255.1526 104.8681 15.00816350854565 ISS (ZARYA) 1 25544U 98067A 09199.93400243 -.00022871 00000-0 -15385-3 0 2397 2 25544 051.6372 143.8601 0005946 250.9181 232.8317 15.73879816610951 CXO 1 25867U 99040B 09200.87500000 -.00000140 +00000-0 +10000-3 0 03489 2 25867 065.5891 067.9571 7579657 275.7735 359.0724 00.37793972005137 ____________________________________________________________________ These 2-Line ...Continue Reading

[list_settings.list_name] Current TLEs

July 20th 2009 PDT

HST 1 20580U 90037B 09197.50597879 +.00000263 +00000-0 +73702-5 0 04215 2 20580 028.4705 270.9422 0003460 232.7761 127.2672 15.00815817854268 ISS (ZARYA) 1 25544U 98067A 09199.98285707 -.00022872 +00000-0 -15385-3 0 02401 2 25544 051.6372 143.6106 0006123 248.3935 152.3559 15.73879154610965 CXO 1 25867U 99040B 09200.87500000 -.00000140 +00000-0 +10000-3 0 03489 2 25867 065.5891 067.9571 7579657 275.7735 359.0724 00.37793972005137 ____________________________________________________________________ These 2-Line ...Continue Reading

[list_settings.list_name] Current TLEs

July 19th 2009 PDT

HST 1 20580U 90037B 09197.50597879 +.00000263 +00000-0 +73702-5 0 04215 2 20580 028.4705 270.9422 0003460 232.7761 127.2672 15.00815817854268 ISS (ZARYA) 1 25544U 98067A 09198.85154880 +.00009252 +00000-0 +66696-4 0 02321 2 25544 051.6353 149.4155 0006868 246.6521 219.4066 15.74391146610789 CXO 1 25867U 99040B 09198.20833333 -.00000029 +00000-0 +10000-3 0 03464 2 25867 065.5751 068.0563 7577662 275.8190 355.9538 00.37803041005121 ____________________________________________________________________ These 2-Line ...Continue Reading

[list_settings.list_name] Current TLEs

July 18th 2009 PDT

HST 1 20580U 90037B 09197.50597879 +.00000263 +00000-0 +73702-5 0 04215 2 20580 028.4705 270.9422 0003460 232.7761 127.2672 15.00815817854268 ISS (ZARYA) 1 25544U 98067A 09197.89571571 +.00009797 +00000-0 +70326-4 0 02277 2 25544 051.6383 154.3244 0007102 232.4894 212.4015 15.74402858610638 CXO 1 25867U 99040B 09198.20833333 -.00000029 +00000-0 +10000-3 0 03464 2 25867 065.5751 068.0563 7577662 275.8190 355.9538 00.37803041005121 ____________________________________________________________________ These 2-Line ...Continue Reading

[list_settings.list_name] Current TLEs

July 17th 2009 PDT

HST 1 20580U 90037B 09194.51349712 +.00000309 +00000-0 +10848-4 0 04205 2 20580 028.4709 290.4849 0003571 201.0834 158.9591 15.00815143853818 ISS (ZARYA) 1 25544U 98067A 09197.45336425 .00009883 00000-0 70929-4 0 2271 2 25544 051.6385 156.5983 0007078 231.3404 224.6831 15.74393905610566 CXO 1 25867U 99040B 09195.67197392 .00000000 00000-0 10000-3 0 3479 2 25867 065.5594 068.1364 7573476 275.7818 010.7765 00.37815994 5118 ____________________________________________________________________ These 2-Line ...Continue Reading
  • This mailing list is a public mailing list - anyone may join or leave, at any time.
  • This mailing list is announce-only.

International Space Station (ISS) / Hubble Space Telescope (HST) / Chandra X-Ray Observatory Orbital Data via EMAIL

Privacy Policy:

Private list